Home > Weather > Las Palmas > Past weeks

Flag for Spain Weather for the Past 2 Weeks in Las Palmas, Canary Islands, Spain

Now
68 °F

Passing clouds.


Feels Like: 68 °F
Forecast: N/A
Wind: 20 mph from North

Location: Las Palmas De Gran Canaria / Gando

Current Time: Feb 11, 2016 at 8:00:04 PM

Latest Report: Feb 11, 2016 at 7:30 PM


Visibility: N/A

Pressure: 30.27 "Hg

Humidity: 56%

Dew point: 52 °F

Location of Las PalmasLocation

Historic Weather in Las Palmas — Graph

°F

Las Palmas Temperature Yesterday

Maximum temperature yesterday: 70 °F (at 12:30 PM)
Minimum temperature yesterday: 66 °F (at 12:00 AM)
Average temperature yesterday: 67 °F

High & Low Weather Summary for the Past Weeks

 TemperatureHumidityPressure
High73 °F (Feb 9, 1:00 PM)88% (Feb 8, 12:00 AM)30.51 "Hg (Feb 8, 12:00 AM)
Low61 °F (Feb 1, 8:00 AM)44% (Feb 1, 12:30 PM)30.15 "Hg (Feb 5, 4:30 AM)
Average67 °F69%30.33 "Hg
* Reported Jan 27 7:00 PM — Feb 11 7:00 PM, Las Palmas, Weather by CustomWeather, © 2016

Note: Actual official high and low records may vary slightly from our data, if they occured in-between our weather recording intervals... More about our weather records

Advertising

Las Palmas Weather History for the Previous 24 Hours

 ConditionsComfort  
Time TempWeatherWind HumidityBarometerVisibility
7:00 PM
Thu, Feb 11
68 °FPassing clouds.23 mph60%30.24 "HgN/A
6:30 PM68 °FPassing clouds.21 mph60%30.24 "HgN/A
6:00 PM70 °FScattered clouds.24 mph57%30.24 "HgN/A
5:30 PM70 °FBroken clouds.22 mph60%30.24 "HgN/A
5:00 PM72 °FPartly sunny.22 mph57%30.24 "HgN/A
4:30 PM72 °FPartly sunny.25 mph50%30.24 "HgN/A
4:00 PM72 °FScattered clouds.24 mph50%30.24 "HgN/A
3:30 PM72 °FScattered clouds.26 mph47%30.24 "HgN/A
3:00 PM73 °FScattered clouds.30 mph50%30.24 "HgN/A
2:30 PM72 °FScattered clouds.32 mph53%30.24 "HgN/A
2:00 PM72 °FScattered clouds.30 mph61%30.27 "HgN/A
1:30 PM73 °FPassing clouds.26 mph47%30.27 "HgN/A
1:00 PM73 °FPassing clouds.23 mph47%30.30 "HgN/A
12:30 PM72 °FPassing clouds.28 mph50%30.30 "HgN/A
12:00 PM72 °FPassing clouds.25 mph50%30.30 "HgN/A
11:30 AM72 °FPassing clouds.25 mph47%30.30 "HgN/A
11:00 AM70 °FPassing clouds.26 mph53%30.30 "HgN/A
10:30 AM70 °FPartly sunny.26 mph57%30.30 "HgN/A
10:00 AM68 °FPartly sunny.28 mph56%30.33 "HgN/A
9:30 AM66 °FPartly sunny.25 mph64%30.30 "HgN/A
9:00 AM66 °FPartly sunny.20 mph64%30.30 "HgN/A
8:30 AM66 °FPartly sunny.20 mph64%30.30 "HgN/A
8:00 AM64 °FPartly sunny.23 mph68%30.30 "HgN/A
7:30 AM64 °FPassing clouds.23 mph68%30.27 "HgN/A
7:00 AM64 °FPassing clouds.23 mph68%30.27 "HgN/A
6:30 AM64 °FPassing clouds.20 mph68%30.27 "HgN/A
6:00 AM66 °FPassing clouds.22 mph64%30.27 "HgN/A
5:30 AM66 °FPassing clouds.18 mph64%30.27 "HgN/A
5:00 AM66 °FPassing clouds.21 mph64%30.30 "HgN/A
4:30 AM66 °FPassing clouds.21 mph64%30.30 "HgN/A
4:00 AM66 °FPassing clouds.17 mph68%30.30 "HgN/A
3:30 AM66 °FPassing clouds.18 mph64%30.30 "HgN/A
3:00 AM66 °FPassing clouds.17 mph64%30.30 "HgN/A
2:00 AM66 °FPassing clouds.21 mph64%30.30 "HgN/A
1:30 AM66 °FPassing clouds.21 mph64%30.33 "HgN/A
1:00 AM66 °FPassing clouds.21 mph64%30.33 "HgN/A
12:30 AM66 °FPassing clouds.23 mph64%30.33 "HgN/A
12:00 AM66 °FPassing clouds.21 mph64%30.33 "HgN/A
11:30 PM
Wed, Feb 10
66 °FPassing clouds.23 mph68%30.36 "HgN/A
11:00 PM66 °FPassing clouds.18 mph64%30.33 "HgN/A
10:30 PM66 °FPassing clouds.21 mph64%30.33 "HgN/A
9:30 PM66 °FPassing clouds.18 mph68%30.33 "HgN/A
9:00 PM66 °FPassing clouds.18 mph64%30.33 "HgN/A
8:30 PM66 °FPassing clouds.21 mph64%30.33 "HgN/A
8:00 PM66 °FPassing clouds.20 mph68%30.30 "HgN/A
Weather by CustomWeather, © 2016

See weather overviewHow to use our weather pages